contact:dominique.lefevre@mio.osupytheas.fr, maurice.libes@osupytheas.fr, didier.mallarino@osupytheas.fr
Project:EMSO http://www.emso-fr.org/EMSO-France
Depth: 2436.0 m
Title:EMSO Ligure Ouest : Data MII capteur MICROCAT
DateTime_Computer,Latitude,Longitude,Temperature,Conductivity,Pressure,DateTime_Instrument
DateTime_Computer,Latitude,Longitude,degC,S m-1,dbar,DateTime_Instrument
2022-05-28T00:02:38Z,42.805,6.029,13.3019,4.60084,2470.52,2022-5-28T02:04:20Z
2022-05-28T00:05:41Z,42.805,6.029,13.3021,4.60104,2470.507,2022-5-28T02:07:23Z
2022-05-28T00:08:45Z,42.805,6.029,13.3021,4.60069,2470.483,2022-5-28T02:10:27Z
2022-05-28T00:11:48Z,42.805,6.029,13.3009,4.60095,2470.507,2022-5-28T02:13:30Z
2022-05-28T00:14:51Z,42.805,6.029,13.3008,4.60070,2470.53,2022-5-28T02:16:33Z
2022-05-28T00:17:54Z,42.805,6.029,13.3020,4.60098,2470.483,2022-5-28T02:19:36Z
2022-05-28T00:20:57Z,42.805,6.029,13.3015,4.60077,2470.507,2022-5-28T02:22:39Z
2022-05-28T00:24:00Z,42.805,6.029,13.3011,4.60099,2470.52,2022-5-28T02:25:42Z
2022-05-28T00:27:03Z,42.805,6.029,13.3016,4.60091,2470.483,2022-5-28T02:28:45Z
2022-05-28T00:30:06Z,42.805,6.029,13.3015,4.60087,2470.483,2022-5-28T02:31:48Z
2022-05-28T00:33:10Z,42.805,6.029,13.3013,4.60068,2470.46,2022-5-28T02:34:52Z
2022-05-28T00:36:13Z,42.805,6.029,13.3013,4.60073,2470.46,2022-5-28T02:37:55Z
2022-05-28T00:39:16Z,42.805,6.029,13.3016,4.60084,2470.53,2022-5-28T02:40:58Z
2022-05-28T00:42:19Z,42.805,6.029,13.3019,4.60063,2470.483,2022-5-28T02:44:01Z
2022-05-28T00:45:22Z,42.805,6.029,13.3013,4.60072,2470.497,2022-5-28T02:47:04Z
2022-05-28T00:48:25Z,42.805,6.029,13.3022,4.60079,2470.507,2022-5-28T02:50:07Z
2022-05-28T00:51:28Z,42.805,6.029,13.3024,4.60079,2470.52,2022-5-28T02:53:10Z
2022-05-28T00:54:31Z,42.805,6.029,13.3031,4.60097,2470.507,2022-5-28T02:56:13Z
2022-05-28T00:57:35Z,42.805,6.029,13.3014,4.60070,2470.483,2022-5-28T02:59:17Z
2022-05-28T01:00:38Z,42.805,6.029,13.3015,4.60099,2470.52,2022-5-28T03:02:20Z
2022-05-28T01:03:41Z,42.805,6.029,13.3029,4.60103,2470.497,2022-5-28T03:05:23Z
2022-05-28T01:06:44Z,42.805,6.029,13.3017,4.60074,2470.483,2022-5-28T03:08:26Z
2022-05-28T01:09:47Z,42.805,6.029,13.3017,4.60096,2470.52,2022-5-28T03:11:29Z
2022-05-28T01:12:50Z,42.805,6.029,13.3023,4.60089,2470.52,2022-5-28T03:14:32Z
2022-05-28T01:15:53Z,42.805,6.029,13.3026,4.60102,2470.497,2022-5-28T03:17:35Z
2022-05-28T01:18:56Z,42.805,6.029,13.3017,4.60097,2470.46,2022-5-28T03:20:38Z
2022-05-28T01:22:00Z,42.805,6.029,13.3011,4.60097,2470.507,2022-5-28T03:23:41Z
2022-05-28T01:25:03Z,42.805,6.029,13.3012,4.60092,2470.483,2022-5-28T03:26:45Z
2022-05-28T01:28:06Z,42.805,6.029,13.3014,4.60061,2470.53,2022-5-28T03:29:48Z
2022-05-28T01:31:09Z,42.805,6.029,13.3009,4.60071,2470.483,2022-5-28T03:32:51Z
2022-05-28T01:34:12Z,42.805,6.029,13.3012,4.60072,2470.507,2022-5-28T03:35:54Z
2022-05-28T01:37:15Z,42.805,6.029,13.3011,4.60069,2470.52,2022-5-28T03:38:57Z
2022-05-28T01:40:18Z,42.805,6.029,13.3014,4.60069,2470.46,2022-5-28T03:42:00Z
2022-05-28T01:43:21Z,42.805,6.029,13.3014,4.60072,2470.483,2022-5-28T03:45:03Z
2022-05-28T01:46:25Z,42.805,6.029,13.3019,4.60073,2470.483,2022-5-28T03:48:06Z
2022-05-28T01:49:28Z,42.805,6.029,13.3016,4.60061,2470.483,2022-5-28T03:51:10Z
2022-05-28T01:52:31Z,42.805,6.029,13.3013,4.60076,2470.52,2022-5-28T03:54:13Z
2022-05-28T01:55:34Z,42.805,6.029,13.3012,4.60070,2470.497,2022-5-28T03:57:16Z
2022-05-28T01:58:37Z,42.805,6.029,13.3027,4.60110,2470.483,2022-5-28T04:00:19Z
2022-05-28T02:01:40Z,42.805,6.029,13.3011,4.60074,2470.507,2022-5-28T04:03:22Z
2022-05-28T02:04:43Z,42.805,6.029,13.3015,4.60067,2470.497,2022-5-28T04:06:25Z
2022-05-28T02:07:46Z,42.805,6.029,13.3013,4.60058,2470.507,2022-5-28T04:09:28Z
2022-05-28T02:10:49Z,42.805,6.029,13.3021,4.60087,2470.52,2022-5-28T04:12:31Z
2022-05-28T02:13:53Z,42.805,6.029,13.3006,4.60068,2470.52,2022-5-28T04:15:35Z
2022-05-28T02:16:56Z,42.805,6.029,13.3006,4.60074,2470.53,2022-5-28T04:18:38Z
2022-05-28T02:19:59Z,42.805,6.029,13.3014,4.60073,2470.483,2022-5-28T04:21:41Z
2022-05-28T02:23:02Z,42.805,6.029,13.3016,4.60077,2470.544,2022-5-28T04:24:44Z
2022-05-28T02:26:05Z,42.805,6.029,13.3014,4.60075,2470.52,2022-5-28T04:27:47Z
2022-05-28T02:29:08Z,42.805,6.029,13.3022,4.60106,2470.483,2022-5-28T04:30:50Z
2022-05-28T02:32:11Z,42.805,6.029,13.3009,4.60077,2470.507,2022-5-28T04:33:53Z
2022-05-28T02:35:14Z,42.805,6.029,13.3014,4.60087,2470.507,2022-5-28T04:36:56Z
2022-05-28T02:38:18Z,42.805,6.029,13.3014,4.60089,2470.544,2022-5-28T04:40:00Z
2022-05-28T02:41:21Z,42.805,6.029,13.3017,4.60076,2470.53,2022-5-28T04:43:03Z
2022-05-28T02:44:24Z,42.805,6.029,13.3012,4.60063,2470.507,2022-5-28T04:46:06Z
2022-05-28T02:47:27Z,42.805,6.029,13.3014,4.60076,2470.53,2022-5-28T04:49:09Z
2022-05-28T02:50:30Z,42.805,6.029,13.3009,4.60083,2470.544,2022-5-28T04:52:12Z
2022-05-28T02:53:33Z,42.805,6.029,13.3024,4.60109,2470.53,2022-5-28T04:55:15Z
2022-05-28T02:56:36Z,42.805,6.029,13.3017,4.60094,2470.53,2022-5-28T04:58:18Z
2022-05-28T02:59:39Z,42.805,6.029,13.3019,4.60104,2470.567,2022-5-28T05:01:21Z
2022-05-28T03:02:43Z,42.805,6.029,13.3019,4.60090,2470.53,2022-5-28T05:04:24Z
2022-05-28T03:05:46Z,42.805,6.029,13.3029,4.60080,2470.567,2022-5-28T05:07:28Z
2022-05-28T03:08:49Z,42.805,6.029,13.3029,4.60094,2470.544,2022-5-28T05:10:31Z
2022-05-28T03:11:52Z,42.805,6.029,13.3025,4.60099,2470.553,2022-5-28T05:13:34Z
2022-05-28T03:14:55Z,42.805,6.029,13.3019,4.60072,2470.577,2022-5-28T05:16:37Z
2022-05-28T03:17:58Z,42.805,6.029,13.3026,4.60087,2470.553,2022-5-28T05:19:40Z
2022-05-28T03:21:01Z,42.805,6.029,13.3014,4.60099,2470.567,2022-5-28T05:22:43Z
2022-05-28T03:24:04Z,42.805,6.029,13.3017,4.60057,2470.591,2022-5-28T05:25:46Z
2022-05-28T03:27:07Z,42.805,6.029,13.3034,4.60087,2470.553,2022-5-28T05:28:49Z
2022-05-28T03:30:11Z,42.805,6.029,13.3012,4.60107,2470.553,2022-5-28T05:31:53Z
2022-05-28T03:33:14Z,42.805,6.029,13.3034,4.60072,2470.553,2022-5-28T05:34:56Z
2022-05-28T03:36:17Z,42.805,6.029,13.3040,4.60085,2470.567,2022-5-28T05:37:59Z
2022-05-28T03:39:20Z,42.805,6.029,13.3029,4.60078,2470.614,2022-5-28T05:41:02Z
2022-05-28T03:42:23Z,42.805,6.029,13.3019,4.60104,2470.563,2022-5-28T05:44:05Z
2022-05-28T03:45:26Z,42.805,6.029,13.3031,4.60090,2470.591,2022-5-28T05:47:08Z
2022-05-28T03:48:29Z,42.805,6.029,13.3014,4.60066,2470.591,2022-5-28T05:50:11Z
2022-05-28T03:51:32Z,42.805,6.029,13.3019,4.60070,2470.6,2022-5-28T05:53:14Z
2022-05-28T03:54:36Z,42.805,6.029,13.3011,4.60064,2470.577,2022-5-28T05:56:18Z
2022-05-28T03:57:39Z,42.805,6.029,13.3019,4.60076,2470.591,2022-5-28T05:59:21Z
2022-05-28T04:00:42Z,42.805,6.029,13.3013,4.60117,2470.577,2022-5-28T06:02:24Z
2022-05-28T04:03:45Z,42.805,6.029,13.3020,4.60069,2470.591,2022-5-28T06:05:27Z
2022-05-28T04:06:48Z,42.805,6.029,13.3019,4.60069,2470.591,2022-5-28T06:08:30Z
2022-05-28T04:09:51Z,42.805,6.029,13.3029,4.60094,2470.6,2022-5-28T06:11:33Z
2022-05-28T04:12:54Z,42.805,6.029,13.3020,4.60094,2470.614,2022-5-28T06:14:36Z
2022-05-28T04:15:57Z,42.805,6.029,13.3003,4.60079,2470.614,2022-5-28T06:17:39Z
2022-05-28T04:19:01Z,42.805,6.029,13.3007,4.60064,2470.577,2022-5-28T06:20:42Z
2022-05-28T04:22:04Z,42.805,6.029,13.3011,4.60077,2470.577,2022-5-28T06:23:46Z
2022-05-28T04:25:07Z,42.805,6.029,13.3009,4.60057,2470.577,2022-5-28T06:26:49Z
2022-05-28T04:28:10Z,42.805,6.029,13.3012,4.60080,2470.6,2022-5-28T06:29:52Z
2022-05-28T04:31:13Z,42.805,6.029,13.3011,4.60087,2470.577,2022-5-28T06:32:55Z
2022-05-28T04:34:16Z,42.805,6.029,13.3009,4.60075,2470.6,2022-5-28T06:35:58Z
2022-05-28T04:37:19Z,42.805,6.029,13.3010,4.60061,2470.637,2022-5-28T06:39:01Z
2022-05-28T04:40:22Z,42.805,6.029,13.3021,4.60065,2470.661,2022-5-28T06:42:04Z
2022-05-28T04:43:25Z,42.805,6.029,13.3023,4.60082,2470.591,2022-5-28T06:45:07Z
2022-05-28T04:46:29Z,42.805,6.029,13.3023,4.60093,2470.614,2022-5-28T06:48:11Z
2022-05-28T04:49:32Z,42.805,6.029,13.3019,4.60082,2470.6,2022-5-28T06:51:14Z
2022-05-28T04:52:35Z,42.805,6.029,13.3014,4.60052,2470.6,2022-5-28T06:54:17Z
2022-05-28T04:55:38Z,42.805,6.029,13.3010,4.60083,2470.577,2022-5-28T06:57:20Z
2022-05-28T04:58:41Z,42.805,6.029,13.3019,4.60079,2470.61,2022-5-28T07:00:23Z
2022-05-28T05:01:44Z,42.805,6.029,13.3004,4.60054,2470.624,2022-5-28T07:03:26Z
2022-05-28T05:04:47Z,42.805,6.029,13.3015,4.60062,2470.646,2022-5-28T07:06:29Z
2022-05-28T05:07:50Z,42.805,6.029,13.3010,4.60068,2470.6,2022-5-28T07:09:32Z
2022-05-28T05:10:54Z,42.805,6.029,13.3009,4.60067,2470.624,2022-5-28T07:12:36Z
2022-05-28T05:13:57Z,42.805,6.029,13.3006,4.60060,2470.624,2022-5-28T07:15:39Z
2022-05-28T05:17:00Z,42.805,6.029,13.3006,4.60061,2470.624,2022-5-28T07:18:42Z
2022-05-28T05:20:03Z,42.805,6.029,13.3009,4.60060,2470.614,2022-5-28T07:21:45Z
2022-05-28T05:23:06Z,42.805,6.029,13.3010,4.60079,2470.624,2022-5-28T07:24:48Z
2022-05-28T05:26:09Z,42.805,6.029,13.3014,4.60076,2470.624,2022-5-28T07:27:51Z
2022-05-28T05:29:12Z,42.805,6.029,13.3010,4.60059,2470.637,2022-5-28T07:30:54Z
2022-05-28T05:32:15Z,42.805,6.029,13.3005,4.60061,2470.637,2022-5-28T07:33:57Z
2022-05-28T05:35:19Z,42.805,6.029,13.3014,4.60055,2470.624,2022-5-28T07:37:01Z
2022-05-28T05:38:22Z,42.805,6.029,13.3028,4.60092,2470.624,2022-5-28T07:40:04Z
2022-05-28T05:41:25Z,42.805,6.029,13.3017,4.60058,2470.6,2022-5-28T07:43:07Z
2022-05-28T05:44:28Z,42.805,6.029,13.3020,4.60061,2470.614,2022-5-28T07:46:10Z
2022-05-28T05:47:31Z,42.805,6.029,13.3011,4.60062,2470.624,2022-5-28T07:49:13Z
2022-05-28T05:50:34Z,42.805,6.029,13.3024,4.60086,2470.624,2022-5-28T07:52:16Z
2022-05-28T05:53:37Z,42.805,6.029,13.3032,4.60079,2470.624,2022-5-28T07:55:19Z
2022-05-28T05:56:40Z,42.805,6.029,13.3015,4.60084,2470.646,2022-5-28T07:58:22Z
2022-05-28T05:59:44Z,42.805,6.029,13.3018,4.60055,2470.637,2022-5-28T08:01:26Z
2022-05-28T06:02:47Z,42.805,6.029,13.3004,4.60052,2470.624,2022-5-28T08:04:29Z
2022-05-28T06:05:50Z,42.805,6.029,13.3017,4.60078,2470.637,2022-5-28T08:07:32Z
2022-05-28T06:08:53Z,42.805,6.029,13.3024,4.60082,2470.614,2022-5-28T08:10:35Z
2022-05-28T06:11:56Z,42.805,6.029,13.3031,4.60081,2470.637,2022-5-28T08:13:38Z
2022-05-28T06:14:59Z,42.805,6.029,13.3026,4.60067,2470.6,2022-5-28T08:16:41Z
2022-05-28T06:18:02Z,42.805,6.029,13.3015,4.60080,2470.6,2022-5-28T08:19:44Z
2022-05-28T06:21:05Z,42.805,6.029,13.3022,4.60067,2470.624,2022-5-28T08:22:47Z
2022-05-28T06:24:08Z,42.805,6.029,13.3026,4.60074,2470.6,2022-5-28T08:25:50Z
2022-05-28T06:27:12Z,42.805,6.029,13.3010,4.60053,2470.577,2022-5-28T08:28:54Z
2022-05-28T06:30:15Z,42.805,6.029,13.3015,4.60077,2470.646,2022-5-28T08:31:57Z
2022-05-28T06:33:18Z,42.805,6.029,13.3021,4.60046,2470.624,2022-5-28T08:35:00Z
2022-05-28T06:36:21Z,42.805,6.029,13.3029,4.60077,2470.624,2022-5-28T08:38:03Z
2022-05-28T06:39:24Z,42.805,6.029,13.3017,4.60070,2470.624,2022-5-28T08:41:06Z
2022-05-28T06:42:27Z,42.805,6.029,13.3010,4.60049,2470.6,2022-5-28T08:44:09Z
2022-05-28T06:45:30Z,42.805,6.029,13.3006,4.60057,2470.6,2022-5-28T08:47:12Z
2022-05-28T06:48:33Z,42.805,6.029,13.3012,4.60059,2470.6,2022-5-28T08:50:15Z
2022-05-28T06:51:37Z,42.805,6.029,13.3011,4.60057,2470.624,2022-5-28T08:53:19Z
2022-05-28T06:54:40Z,42.805,6.029,13.3011,4.60049,2470.577,2022-5-28T08:56:22Z
2022-05-28T06:57:43Z,42.805,6.029,13.3011,4.60066,2470.6,2022-5-28T08:59:25Z
2022-05-28T07:00:46Z,42.805,6.029,13.3017,4.60072,2470.624,2022-5-28T09:02:28Z
2022-05-28T07:03:49Z,42.805,6.029,13.3015,4.60072,2470.614,2022-5-28T09:05:31Z
2022-05-28T07:06:52Z,42.805,6.029,13.3009,4.60052,2470.577,2022-5-28T09:08:34Z
2022-05-28T07:09:55Z,42.805,6.029,13.3006,4.60066,2470.6,2022-5-28T09:11:37Z
2022-05-28T07:12:58Z,42.805,6.029,13.3011,4.60078,2470.6,2022-5-28T09:14:40Z
2022-05-28T07:16:02Z,42.805,6.029,13.3009,4.60067,2470.591,2022-5-28T09:17:44Z
2022-05-28T07:19:05Z,42.805,6.029,13.3013,4.60059,2470.577,2022-5-28T09:20:47Z
2022-05-28T07:22:08Z,42.805,6.029,13.3015,4.60077,2470.624,2022-5-28T09:23:50Z
2022-05-28T07:25:11Z,42.805,6.029,13.3014,4.60069,2470.586,2022-5-28T09:26:53Z
2022-05-28T07:28:14Z,42.805,6.029,13.3012,4.60067,2470.6,2022-5-28T09:29:56Z
2022-05-28T07:31:17Z,42.805,6.029,13.3019,4.60063,2470.591,2022-5-28T09:32:59Z
2022-05-28T07:34:20Z,42.805,6.029,13.3007,4.60053,2470.563,2022-5-28T09:36:02Z
2022-05-28T07:37:23Z,42.805,6.029,13.3009,4.60049,2470.577,2022-5-28T09:39:05Z
2022-05-28T07:40:27Z,42.805,6.029,13.3012,4.60052,2470.6,2022-5-28T09:42:08Z
2022-05-28T07:43:30Z,42.805,6.029,13.3007,4.60046,2470.577,2022-5-28T09:45:12Z
2022-05-28T07:46:33Z,42.805,6.029,13.3004,4.60049,2470.6,2022-5-28T09:48:15Z
2022-05-28T07:49:36Z,42.805,6.029,13.3004,4.60052,2470.614,2022-5-28T09:51:18Z
2022-05-28T07:52:39Z,42.805,6.029,13.3014,4.60069,2470.553,2022-5-28T09:54:21Z
2022-05-28T07:55:42Z,42.805,6.029,13.3009,4.60062,2470.591,2022-5-28T09:57:24Z
2022-05-28T07:58:45Z,42.805,6.029,13.3017,4.60056,2470.577,2022-5-28T10:00:27Z
2022-05-28T08:01:48Z,42.805,6.029,13.3013,4.60050,2470.567,2022-5-28T10:03:30Z
2022-05-28T08:04:51Z,42.805,6.029,13.3009,4.60057,2470.553,2022-5-28T10:06:33Z
2022-05-28T08:07:55Z,42.805,6.029,13.3007,4.60046,2470.591,2022-5-28T10:09:37Z
2022-05-28T08:10:58Z,42.805,6.029,13.3010,4.60062,2470.553,2022-5-28T10:12:40Z
2022-05-28T08:14:01Z,42.805,6.029,13.3006,4.60074,2470.591,2022-5-28T10:15:43Z
2022-05-28T08:17:04Z,42.805,6.029,13.3016,4.60067,2470.553,2022-5-28T10:18:46Z
2022-05-28T08:20:07Z,42.805,6.029,13.3031,4.60062,2470.577,2022-5-28T10:21:49Z
2022-05-28T08:23:10Z,42.805,6.029,13.3018,4.60087,2470.553,2022-5-28T10:24:52Z
2022-05-28T08:26:13Z,42.805,6.029,13.3022,4.60074,2470.577,2022-5-28T10:27:55Z
2022-05-28T08:29:16Z,42.805,6.029,13.3019,4.60067,2470.553,2022-5-28T10:30:58Z
2022-05-28T08:32:20Z,42.805,6.029,13.3012,4.60083,2470.53,2022-5-28T10:34:02Z
2022-05-28T08:35:23Z,42.805,6.029,13.3011,4.60069,2470.567,2022-5-28T10:37:05Z
2022-05-28T08:38:26Z,42.805,6.029,13.3006,4.60056,2470.553,2022-5-28T10:40:08Z
2022-05-28T08:41:29Z,42.805,6.029,13.3014,4.60084,2470.567,2022-5-28T10:43:11Z
2022-05-28T08:44:32Z,42.805,6.029,13.3026,4.60069,2470.553,2022-5-28T10:46:14Z
2022-05-28T08:47:35Z,42.805,6.029,13.3016,4.60076,2470.553,2022-5-28T10:49:17Z
2022-05-28T08:50:38Z,42.805,6.029,13.3009,4.60089,2470.567,2022-5-28T10:52:20Z
2022-05-28T08:53:42Z,42.805,6.029,13.3014,4.60069,2470.567,2022-5-28T10:55:23Z
2022-05-28T08:56:45Z,42.805,6.029,13.3020,4.60081,2470.567,2022-5-28T10:58:27Z
2022-05-28T08:59:48Z,42.805,6.029,13.3014,4.60062,2470.591,2022-5-28T11:01:30Z
2022-05-28T09:02:51Z,42.805,6.029,13.3004,4.60062,2470.516,2022-5-28T11:04:33Z
2022-05-28T09:05:54Z,42.805,6.029,13.3017,4.60057,2470.53,2022-5-28T11:07:36Z
2022-05-28T09:08:57Z,42.805,6.029,13.3024,4.60075,2470.53,2022-5-28T11:10:39Z
2022-05-28T09:12:00Z,42.805,6.029,13.3007,4.60056,2470.53,2022-5-28T11:13:42Z
2022-05-28T09:15:03Z,42.805,6.029,13.3010,4.60064,2470.567,2022-5-28T11:16:45Z
2022-05-28T09:18:07Z,42.805,6.029,13.3007,4.60049,2470.544,2022-5-28T11:19:49Z
2022-05-28T09:21:10Z,42.805,6.029,13.3008,4.60053,2470.507,2022-5-28T11:22:52Z
2022-05-28T09:24:13Z,42.805,6.029,13.3012,4.60062,2470.553,2022-5-28T11:25:55Z
2022-05-28T09:27:16Z,42.805,6.029,13.3007,4.60058,2470.53,2022-5-28T11:28:58Z
2022-05-28T09:30:19Z,42.805,6.029,13.3016,4.60051,2470.567,2022-5-28T11:32:01Z
2022-05-28T09:33:22Z,42.805,6.029,13.3007,4.60044,2470.544,2022-5-28T11:35:04Z
2022-05-28T09:36:25Z,42.805,6.029,13.3006,4.60049,2470.52,2022-5-28T11:38:07Z
2022-05-28T09:39:28Z,42.805,6.029,13.3013,4.60049,2470.544,2022-5-28T11:41:10Z
2022-05-28T09:42:32Z,42.805,6.029,13.3005,4.60046,2470.53,2022-5-28T11:44:13Z
2022-05-28T09:45:35Z,42.805,6.029,13.3006,4.60046,2470.507,2022-5-28T11:47:17Z
2022-05-28T09:48:38Z,42.805,6.029,13.3008,4.60047,2470.474,2022-5-28T11:50:20Z
2022-05-28T09:51:41Z,42.805,6.029,13.3006,4.60051,2470.497,2022-5-28T11:53:23Z
2022-05-28T09:54:44Z,42.805,6.029,13.3010,4.60051,2470.483,2022-5-28T11:56:26Z
2022-05-28T09:57:47Z,42.805,6.029,13.3011,4.60051,2470.483,2022-5-28T11:59:29Z
2022-05-28T10:00:50Z,42.805,6.029,13.3004,4.60049,2470.446,2022-5-28T12:02:32Z
2022-05-28T10:03:53Z,42.805,6.029,13.3011,4.60050,2470.497,2022-5-28T12:05:35Z
2022-05-28T10:06:57Z,42.805,6.029,13.3009,4.60065,2470.507,2022-5-28T12:08:38Z
2022-05-28T10:10:00Z,42.805,6.029,13.3007,4.60053,2470.497,2022-5-28T12:11:42Z
2022-05-28T10:13:03Z,42.805,6.029,13.3007,4.60073,2470.497,2022-5-28T12:14:45Z
2022-05-28T10:16:06Z,42.805,6.029,13.3013,4.60069,2470.47,2022-5-28T12:17:48Z
2022-05-28T10:19:09Z,42.805,6.029,13.3017,4.60076,2470.483,2022-5-28T12:20:51Z
2022-05-28T10:22:12Z,42.805,6.029,13.3008,4.60056,2470.474,2022-5-28T12:23:54Z
2022-05-28T10:25:15Z,42.805,6.029,13.3008,4.60044,2470.46,2022-5-28T12:26:57Z
2022-05-28T10:28:18Z,42.805,6.029,13.3005,4.60052,2470.483,2022-5-28T12:30:00Z
2022-05-28T10:31:22Z,42.805,6.029,13.3017,4.60078,2470.497,2022-5-28T12:33:04Z
2022-05-28T10:34:25Z,42.805,6.029,13.3013,4.60060,2470.497,2022-5-28T12:36:07Z
2022-05-28T10:37:28Z,42.805,6.029,13.3011,4.60059,2470.497,2022-5-28T12:39:10Z
2022-05-28T10:40:31Z,42.805,6.029,13.3004,4.60057,2470.474,2022-5-28T12:42:13Z
2022-05-28T10:43:34Z,42.805,6.029,13.3014,4.60048,2470.474,2022-5-28T12:45:16Z
2022-05-28T10:46:37Z,42.805,6.029,13.3004,4.60049,2470.46,2022-5-28T12:48:19Z
2022-05-28T10:49:40Z,42.805,6.029,13.3011,4.60072,2470.46,2022-5-28T12:51:22Z
2022-05-28T10:52:43Z,42.805,6.029,13.3016,4.60064,2470.474,2022-5-28T12:54:25Z
2022-05-28T10:55:47Z,42.805,6.029,13.3005,4.60049,2470.46,2022-5-28T12:57:29Z
2022-05-28T10:58:50Z,42.805,6.029,13.3009,4.60057,2470.497,2022-5-28T13:00:32Z
2022-05-28T11:01:53Z,42.805,6.029,13.3013,4.60061,2470.437,2022-5-28T13:03:35Z
2022-05-28T11:04:56Z,42.805,6.029,13.3003,4.60046,2470.483,2022-5-28T13:06:38Z
2022-05-28T11:07:59Z,42.805,6.029,13.3015,4.60050,2470.45,2022-5-28T13:09:41Z
2022-05-28T11:11:02Z,42.805,6.029,13.3009,4.60049,2470.437,2022-5-28T13:12:44Z
2022-05-28T11:14:05Z,42.805,6.029,13.3014,4.60085,2470.46,2022-5-28T13:15:47Z
2022-05-28T11:17:08Z,42.805,6.029,13.3009,4.60050,2470.46,2022-5-28T13:18:50Z
2022-05-28T11:20:12Z,42.805,6.029,13.3021,4.60084,2470.437,2022-5-28T13:21:54Z
2022-05-28T11:23:15Z,42.805,6.029,13.3009,4.60064,2470.46,2022-5-28T13:24:57Z
2022-05-28T11:26:18Z,42.805,6.029,13.3021,4.60080,2470.437,2022-5-28T13:28:00Z
2022-05-28T11:29:21Z,42.805,6.029,13.3006,4.60060,2470.437,2022-5-28T13:31:03Z
2022-05-28T11:32:24Z,42.805,6.029,13.3014,4.60064,2470.46,2022-5-28T13:34:06Z
2022-05-28T11:35:27Z,42.805,6.029,13.3009,4.60081,2470.437,2022-5-28T13:37:09Z
2022-05-28T11:38:30Z,42.805,6.029,13.3023,4.60062,2470.46,2022-5-28T13:40:12Z
2022-05-28T11:41:33Z,42.805,6.029,13.3010,4.60077,2470.437,2022-5-28T13:43:15Z
2022-05-28T11:44:37Z,42.805,6.029,13.3012,4.60075,2470.483,2022-5-28T13:46:19Z
2022-05-28T11:47:40Z,42.805,6.029,13.3029,4.60086,2470.45,2022-5-28T13:49:22Z
2022-05-28T11:50:43Z,42.805,6.029,13.3025,4.60085,2470.437,2022-5-28T13:52:25Z
2022-05-28T11:53:46Z,42.805,6.029,13.3023,4.60067,2470.45,2022-5-28T13:55:28Z
2022-05-28T11:56:49Z,42.805,6.029,13.3036,4.60075,2470.437,2022-5-28T13:58:31Z
2022-05-28T11:59:52Z,42.805,6.029,13.3022,4.60081,2470.45,2022-5-28T14:01:34Z
2022-05-28T12:02:55Z,42.805,6.029,13.3031,4.60079,2470.437,2022-5-28T14:04:37Z
2022-05-28T12:05:58Z,42.805,6.029,13.3028,4.60088,2470.413,2022-5-28T14:07:40Z
2022-05-28T12:09:02Z,42.805,6.029,13.3019,4.60090,2470.45,2022-5-28T14:10:44Z
2022-05-28T12:12:05Z,42.805,6.029,13.3020,4.60082,2470.45,2022-5-28T14:13:47Z
2022-05-28T12:15:08Z,42.805,6.029,13.3030,4.60088,2470.437,2022-5-28T14:16:50Z
2022-05-28T12:18:11Z,42.805,6.029,13.3014,4.60074,2470.45,2022-5-28T14:19:53Z
2022-05-28T12:21:14Z,42.805,6.029,13.3014,4.60086,2470.427,2022-5-28T14:22:56Z
2022-05-28T12:24:17Z,42.805,6.029,13.3014,4.60096,2470.45,2022-5-28T14:25:59Z
2022-05-28T12:27:20Z,42.805,6.029,13.3021,4.60087,2470.437,2022-5-28T14:29:02Z
2022-05-28T12:30:23Z,42.805,6.029,13.3017,4.60097,2470.46,2022-5-28T14:32:05Z
2022-05-28T12:33:27Z,42.805,6.029,13.3021,4.60094,2470.46,2022-5-28T14:35:09Z
2022-05-28T12:36:30Z,42.805,6.029,13.3026,4.60097,2470.437,2022-5-28T14:38:12Z
2022-05-28T12:39:33Z,42.805,6.029,13.3022,4.60077,2470.413,2022-5-28T14:41:15Z
2022-05-28T12:42:36Z,42.805,6.029,13.3027,4.60087,2470.46,2022-5-28T14:44:18Z
2022-05-28T12:45:39Z,42.805,6.029,13.3024,4.60099,2470.45,2022-5-28T14:47:21Z
2022-05-28T12:48:42Z,42.805,6.029,13.3021,4.60094,2470.413,2022-5-28T14:50:24Z
2022-05-28T12:51:45Z,42.805,6.029,13.3026,4.60098,2470.427,2022-5-28T14:53:27Z
2022-05-28T12:54:48Z,42.805,6.029,13.3014,4.60085,2470.413,2022-5-28T14:56:30Z
2022-05-28T12:57:52Z,42.805,6.029,13.3022,4.60087,2470.413,2022-5-28T14:59:34Z
2022-05-28T13:00:55Z,42.805,6.029,13.3033,4.60082,2470.45,2022-5-28T15:02:37Z
2022-05-28T13:03:58Z,42.805,6.029,13.3028,4.60061,2470.427,2022-5-28T15:05:40Z
2022-05-28T13:07:01Z,42.805,6.029,13.3037,4.60088,2470.413,2022-5-28T15:08:43Z
2022-05-28T13:10:04Z,42.805,6.029,13.3020,4.60081,2470.427,2022-5-28T15:11:46Z
2022-05-28T13:13:07Z,42.805,6.029,13.3015,4.60082,2470.427,2022-5-28T15:14:49Z
2022-05-28T13:16:10Z,42.805,6.029,13.3016,4.60067,2470.46,2022-5-28T15:17:52Z
2022-05-28T13:19:13Z,42.805,6.029,13.3039,4.60094,2470.437,2022-5-28T15:20:55Z
2022-05-28T13:22:17Z,42.805,6.029,13.3018,4.60108,2470.46,2022-5-28T15:23:59Z
2022-05-28T13:25:20Z,42.805,6.029,13.3029,4.60098,2470.437,2022-5-28T15:27:02Z
2022-05-28T13:28:23Z,42.805,6.029,13.3015,4.60104,2470.437,2022-5-28T15:30:05Z
2022-05-28T13:31:26Z,42.805,6.029,13.3026,4.60060,2470.437,2022-5-28T15:33:08Z
2022-05-28T13:34:29Z,42.805,6.029,13.3032,4.60079,2470.427,2022-5-28T15:36:11Z
2022-05-28T13:37:32Z,42.805,6.029,13.3021,4.60089,2470.437,2022-5-28T15:39:14Z
2022-05-28T13:40:35Z,42.805,6.029,13.3033,4.60097,2470.437,2022-5-28T15:42:17Z
2022-05-28T13:43:38Z,42.805,6.029,13.3039,4.60097,2470.437,2022-5-28T15:45:20Z
2022-05-28T13:46:42Z,42.805,6.029,13.3031,4.60090,2470.46,2022-5-28T15:48:24Z
2022-05-28T13:49:45Z,42.805,6.029,13.3008,4.60087,2470.45,2022-5-28T15:51:27Z
2022-05-28T13:52:48Z,42.805,6.029,13.3041,4.60103,2470.427,2022-5-28T15:54:30Z
2022-05-28T13:55:51Z,42.805,6.029,13.3031,4.60106,2470.46,2022-5-28T15:57:33Z
2022-05-28T13:58:54Z,42.805,6.029,13.3039,4.60099,2470.46,2022-5-28T16:00:36Z
2022-05-28T14:01:57Z,42.805,6.029,13.3009,4.60094,2470.45,2022-5-28T16:03:39Z
2022-05-28T14:05:00Z,42.805,6.029,13.3024,4.60098,2470.437,2022-5-28T16:06:42Z
2022-05-28T14:08:03Z,42.805,6.029,13.3031,4.60101,2470.474,2022-5-28T16:09:45Z
2022-05-28T14:11:07Z,42.805,6.029,13.3036,4.60102,2470.437,2022-5-28T16:12:49Z
2022-05-28T14:14:10Z,42.805,6.029,13.3028,4.60081,2470.483,2022-5-28T16:15:52Z
2022-05-28T14:17:13Z,42.805,6.029,13.3024,4.60104,2470.437,2022-5-28T16:18:55Z
2022-05-28T14:20:16Z,42.805,6.029,13.3022,4.60080,2470.497,2022-5-28T16:21:58Z
2022-05-28T14:23:19Z,42.805,6.029,13.3024,4.60077,2470.497,2022-5-28T16:25:01Z
2022-05-28T14:26:22Z,42.805,6.029,13.3026,4.60098,2470.46,2022-5-28T16:28:04Z
2022-05-28T14:29:25Z,42.805,6.029,13.3026,4.60092,2470.497,2022-5-28T16:31:07Z
2022-05-28T14:32:29Z,42.805,6.029,13.3019,4.60095,2470.497,2022-5-28T16:34:10Z
2022-05-28T14:35:32Z,42.805,6.029,13.3011,4.60057,2470.483,2022-5-28T16:37:14Z
2022-05-28T14:38:35Z,42.805,6.029,13.3009,4.60046,2470.52,2022-5-28T16:40:17Z
2022-05-28T14:41:38Z,42.805,6.029,13.3012,4.60075,2470.483,2022-5-28T16:43:20Z
2022-05-28T14:44:41Z,42.805,6.029,13.3021,4.60079,2470.507,2022-5-28T16:46:23Z
2022-05-28T14:47:44Z,42.805,6.029,13.3004,4.60067,2470.483,2022-5-28T16:49:26Z
2022-05-28T14:50:47Z,42.805,6.029,13.3015,4.60084,2470.507,2022-5-28T16:52:29Z
2022-05-28T14:53:50Z,42.805,6.029,13.3038,4.60069,2470.483,2022-5-28T16:55:32Z
2022-05-28T14:56:54Z,42.805,6.029,13.3024,4.60089,2470.507,2022-5-28T16:58:36Z
2022-05-28T14:59:57Z,42.805,6.029,13.3026,4.60088,2470.483,2022-5-28T17:01:39Z
2022-05-28T15:03:00Z,42.805,6.029,13.3031,4.60091,2470.52,2022-5-28T17:04:42Z
2022-05-28T15:06:03Z,42.805,6.029,13.3034,4.60093,2470.52,2022-5-28T17:07:45Z
2022-05-28T15:09:06Z,42.805,6.029,13.3015,4.60084,2470.507,2022-5-28T17:10:48Z
2022-05-28T15:12:09Z,42.805,6.029,13.3022,4.60072,2470.507,2022-5-28T17:13:51Z
2022-05-28T15:15:12Z,42.805,6.029,13.3021,4.60058,2470.53,2022-5-28T17:16:54Z